User: anonymous   Login
Location: Unspecified
(0.0000°N, 0.0000°E)
Time: 19:08:13
(UTC+00:00)
Language:

USA 207 - Orbit

View from above orbital plane
View from above orbital plane
View from above satellite
View from above satellite

Ground track
Ground track

The orbit data is extracted from the following two-line orbital elements,

1 35815U 09047A   17050.98496720 0.00000000  00000-0  00000-0 0    03
2 35815   0.0372 192.3101 0003617 313.5902  46.3832  1.00270000    09
Epoch (UTC): 19 February 2017 23:38:21
Eccentricity: 0.0003617
inclination: 0.0372°
perigee height: 35771 km
apogee height: 35802 km
right ascension of ascending node: 192.3101°
argument of perigee: 313.5902°
revolutions per day: 1.00270000
mean anomaly at epoch: 46.3832°
orbit number at epoch: 0

The dashed part of the orbit path shows where the satellite is in the earth's shadow,  

DLR